Location: *
(51.8167°N, 12.5000°E)
Time: 13:45:21
(UTC+00:00)

Cosmos 1371 Rocket - Pass Details

Date: 16 September 2019
Orbit: 753 x 790 km, 74.0° (Epoch: 18 October)

Event Time Altitude Azimuth Distance (km) Brightness Sun altitude
Rises 20:02:29 0° 210° (SSW) 3,244 7.2 -23.4°
Reaches altitude 10° 20:04:52 10° 213° (SSW) 2,326 6.4 -23.7°
Maximum altitude 20:10:09 71° 297° (WNW) 832 4.2 -24.3°
Drops below altitude 10° 20:15:31 10° 22° (NNE) 2,362 6.7 -25.0°
Sets 20:17:57 0° 25° (NNE) 3,297 7.5 -25.2°
